BEIJING 1 1 28890U 05043A 26208.62447615 .00000567 00000+0 11856-3 0 9993 2 28890 98.2958 342.0734 0015138 150.7017 209.5037 14.63555219106567 HUANJING 1A (HJ-1A) 1 33320U 08041A 26208.62157521 .00000583 00000+0 75945-4 0 9990 2 33320 97.6707 192.9035 0019377 10.8519 349.3110 14.84073196964406 HUANJING 1B (HJ-1B) 1 33321U 08041B 26208.60926321 .00001283 00000+0 16073-3 0 9995 2 33321 97.6545 195.9401 0037733 52.3153 308.1474 14.83388815964400 YAOGAN-4 1 33446U 08061A 26208.57634004 .00001045 00000+0 13417-3 0 9990 2 33446 97.9303 141.7903 0012958 302.9611 57.0356 14.83272145951654 DEIMOS-1 1 35681U 09041A 26208.61073214 .00000811 00000+0 12684-3 0 9992 2 35681 97.7442 4.0969 0002747 74.8931 285.2583 14.75275902912847 UK-DMC 2 1 35683U 09041C 26208.62755968 .00000773 00000+0 11913-3 0 9999 2 35683 97.8879 342.6174 0001794 96.6523 263.4892 14.76109451912536 DMC3-FM1 1 40715U 15032A 26208.61362265 -.00000242 00000+0 -22011-4 0 9996 2 40715 97.6419 72.1940 0004032 287.2044 72.8731 14.85776678595910 DMC3-FM2 1 40716U 15032B 26208.56815812 .00000149 00000+0 23084-4 0 9997 2 40716 97.6470 73.7511 0004639 293.4791 66.5937 14.85783159595909 DMC3-FM3 1 40717U 15032C 26208.59177917 .00000752 00000+0 92419-4 0 9996 2 40717 97.6521 75.5522 0003779 294.7669 65.3153 14.85774535595917